Weather History for Chester, CT

Change the Weather History Date:

Monday, September 9, 2013

  Actual Average (KHVN) Record (KHVN)
Temperature  
Mean Temperature 57 °F -  
Max Temperature 68 °F 74 °F 95 °F (1989)
Min Temperature 46 °F 59 °F 48 °F (1986)
Degree Days  
Heating Degree Days 8    
Growing Degree Days 7 (Base 50)    
Moisture  
Dew Point 45 °F    
Average Humidity 63    
Maximum Humidity 87    
Minimum Humidity 37    
Precipitation  
Precipitation 0.00 in - - ()
Sea Level Pressure  
Sea Level Pressure 30.20 in    
Wind  
Wind Speed 3 mph (SW)    
Max Wind Speed 9 mph    
Max Gust Speed -    
Visibility 10 miles    
Events      
Averages and records for this station are not official NWS values.
T = Trace of Precipitation, MM = Missing Value Source: NWS Daily Summary

Daily Weather History Graph

Daily Weather History Graph

Search for Another Location

Airport:

Trip Planner

Search our weather history database for the weather conditions in past years. The results will help you decide how hot, cold, wet, or windy it might be!

Date:

Astronomy

Sep. 09, 2013 Rise Set
Actual Time 6:24 AM EDT 7:09 PM EDT
Civil Twilight 5:56 AM EDT 7:37 PM EDT
Nautical Twilight 5:23 AM EDT 8:10 PM EDT
Astronomical Twilight 4:49 AM EDT 8:44 PM EDT
Moon 10:46 AM EDT (9/9) 9:20 PM EDT (9/9)
Length of Visible Light 13h 40m
Length of Day
12h 44m
Waxing Crescent, 19% of the Moon is Illuminated
Sep 9
Waxing Crescent
Sep 12
First Quarter
Sep 19
Full
Sep 26
Last Quarter
Oct 4
New

Hourly Weather History & Observations

Time (EDT) Temp. Windchill Dew Point Humidity Pressure Visibility Wind Dir Wind Speed Gust Speed Precip Events Conditions
12:15 AM 53.6 °F - 42.8 °F 67% 30.11 in 10.0 mi Calm Calm - N/A   Clear
12:35 AM 53.6 °F - 42.8 °F 67% 30.12 in 10.0 mi Calm Calm - N/A   Clear
12:55 AM 53.6 °F - 42.8 °F 67% 30.12 in 10.0 mi North 4.6 mph - N/A   Clear
1:15 AM 51.8 °F - 42.8 °F 71% 30.13 in 10.0 mi North 3.5 mph - N/A   Clear
1:35 AM 50.0 °F - 42.8 °F 76% 30.13 in 10.0 mi North - - N/A   Clear
1:55 AM 50.0 °F - 42.8 °F 76% 30.13 in 10.0 mi Calm Calm - N/A   Clear
2:15 AM 50.0 °F - 42.8 °F 76% 30.13 in 10.0 mi Calm Calm - N/A   Clear
2:35 AM 48.2 °F - 44.6 °F 87% 30.14 in 10.0 mi NNE 3.5 mph - N/A   Clear
2:55 AM 50.0 °F - 42.8 °F 76% 30.14 in 10.0 mi Calm Calm - N/A   Clear
3:15 AM 48.2 °F - 42.8 °F 82% 30.14 in 10.0 mi Calm Calm - N/A   Clear
3:35 AM 48.2 °F - 42.8 °F 82% 30.15 in 10.0 mi North 4.6 mph - N/A   Clear
3:55 AM 48.2 °F - 42.8 °F 82% 30.15 in 10.0 mi North 3.5 mph - N/A   Clear
4:15 AM 46.4 °F 45.2 °F 42.8 °F 87% 30.16 in 10.0 mi NNW 3.5 mph - N/A   Clear
4:35 AM 46.4 °F 45.2 °F 42.8 °F 87% 30.18 in 10.0 mi West 3.5 mph - N/A   Clear
4:55 AM 46.4 °F 44.3 °F 42.8 °F 87% 30.19 in 10.0 mi NNW 4.6 mph - N/A   Clear
5:15 AM 48.2 °F - 42.8 °F 82% 30.19 in 10.0 mi NNW 4.6 mph - N/A   Clear
5:35 AM 48.2 °F - 42.8 °F 82% 30.20 in 10.0 mi NW 4.6 mph - N/A   Clear
5:55 AM 46.4 °F 42.9 °F 42.8 °F 87% 30.21 in 10.0 mi North 6.9 mph - N/A   Clear
6:15 AM 46.4 °F 45.2 °F 42.8 °F 87% 30.22 in 10.0 mi NW 3.5 mph - N/A   Clear
6:35 AM 46.4 °F 44.3 °F 42.8 °F 87% 30.22 in 10.0 mi NNW 4.6 mph - N/A   Clear
6:55 AM 46.4 °F - 42.8 °F 87% 30.24 in 10.0 mi Calm Calm - N/A   Clear
7:15 AM 48.2 °F - 42.8 °F 82% 30.24 in 10.0 mi NNW 3.5 mph - N/A   Light Drizzle
7:35 AM 51.8 °F - 42.8 °F 71% 30.25 in 10.0 mi NNW 6.9 mph - N/A   Clear
7:55 AM 53.6 °F - 42.8 °F 67% 30.25 in 10.0 mi NNW 3.5 mph - N/A   Clear
8:15 AM 55.4 °F - 42.8 °F 63% 30.25 in 10.0 mi North 4.6 mph - N/A   Clear
8:35 AM 57.2 °F - 42.8 °F 59% 30.26 in 10.0 mi North 4.6 mph - N/A   Clear
8:55 AM 57.2 °F - 42.8 °F 59% 30.26 in 10.0 mi NE 3.5 mph - N/A   Clear
9:15 AM 57.2 °F - 41.0 °F 55% 30.25 in 10.0 mi NE 4.6 mph - N/A   Clear
9:35 AM 59.0 °F - 42.8 °F 55% 30.25 in 10.0 mi ENE 3.5 mph - N/A   Clear
9:55 AM 62.6 °F - 42.8 °F 48% 30.26 in 10.0 mi East 3.5 mph - N/A   Clear
10:15 AM 62.6 °F - 41.0 °F 45% 30.25 in 10.0 mi NE 3.5 mph - N/A   Clear
10:35 AM 62.6 °F - 37.4 °F 39% 30.26 in 10.0 mi Calm Calm - N/A   Clear
10:55 AM 62.6 °F - 39.2 °F 42% 30.26 in 10.0 mi West 3.5 mph - N/A   Clear
11:15 AM 64.4 °F - 39.2 °F 40% 30.26 in 10.0 mi Calm Calm - N/A   Clear
11:35 AM 64.4 °F - 37.4 °F 37% 30.25 in 10.0 mi Calm Calm - N/A   Clear
11:55 AM 64.4 °F - 39.2 °F 40% 30.25 in 10.0 mi South 4.6 mph - N/A   Clear
12:15 PM 64.4 °F - 39.2 °F 40% 30.24 in 10.0 mi SW 3.5 mph - N/A   Clear
12:35 PM 66.2 °F - 39.2 °F 37% 30.24 in 10.0 mi South 4.6 mph - N/A   Clear
12:55 PM 66.2 °F - 41.0 °F 40% 30.23 in 10.0 mi WSW 4.6 mph - N/A   Clear
1:15 PM 66.2 °F - 41.0 °F 40% 30.23 in 10.0 mi South 5.8 mph - N/A   Clear
1:35 PM 66.2 °F - 41.0 °F 40% 30.23 in 10.0 mi SSW 3.5 mph - N/A   Clear
1:55 PM 68.0 °F - 42.8 °F 40% 30.22 in 10.0 mi West 4.6 mph - N/A   Partly Cloudy
2:15 PM 68.0 °F - 41.0 °F 37% 30.22 in 10.0 mi South 4.6 mph - N/A   Clear
2:35 PM 68.0 °F - 42.8 °F 40% 30.21 in 10.0 mi South 6.9 mph - N/A   Clear
2:55 PM 66.2 °F - 42.8 °F 43% 30.22 in 10.0 mi SSW 5.8 mph - N/A   Clear
3:15 PM 66.2 °F - 42.8 °F 43% 30.22 in 10.0 mi SW 5.8 mph - N/A   Clear
3:35 PM 66.2 °F - 42.8 °F 43% 30.21 in 10.0 mi SSW 5.8 mph - N/A   Clear
3:55 PM 66.2 °F - 42.8 °F 43% 30.21 in 10.0 mi SW 6.9 mph - N/A   Clear
4:15 PM 66.2 °F - 44.6 °F 46% 30.21 in 10.0 mi SSW 9.2 mph - N/A   Clear
4:35 PM 66.2 °F - 44.6 °F 46% 30.22 in 10.0 mi SSW 5.8 mph - N/A   Clear
4:55 PM 66.2 °F - 44.6 °F 46% 30.21 in 10.0 mi SSW 9.2 mph - N/A   Clear
5:15 PM 66.2 °F - 46.4 °F 49% 30.20 in 10.0 mi South 9.2 mph - N/A   Clear
5:35 PM 64.4 °F - 46.4 °F 52% 30.20 in 10.0 mi South 9.2 mph - N/A   Clear
5:55 PM 64.4 °F - 48.2 °F 56% 30.20 in 10.0 mi South 4.6 mph - N/A   Clear
6:15 PM 64.4 °F - 48.2 °F 56% 30.20 in 10.0 mi South 3.5 mph - N/A   Clear
6:35 PM 62.6 °F - 50.0 °F 63% 30.19 in 10.0 mi Calm Calm - N/A   Clear
6:55 PM 60.8 °F - 51.8 °F 72% 30.19 in 10.0 mi Calm Calm - N/A   Clear
7:15 PM 60.8 °F - 51.8 °F 72% 30.19 in 10.0 mi South 3.5 mph - N/A   Clear
7:35 PM 60.8 °F - 50.0 °F 68% 30.19 in 10.0 mi SSW 5.8 mph - N/A   Clear
7:55 PM 60.8 °F - 50.0 °F 68% 30.19 in 10.0 mi SSW 5.8 mph - N/A   Clear
8:15 PM 60.8 °F - 50.0 °F 68% 30.20 in 10.0 mi SSW 4.6 mph - N/A   Clear
8:35 PM 60.8 °F - 51.8 °F 72% 30.20 in 10.0 mi SSW 5.8 mph - N/A   Clear
8:55 PM 60.8 °F - 51.8 °F 72% 30.20 in 10.0 mi SSW 4.6 mph - N/A   Clear
9:15 PM 60.8 °F - 51.8 °F 72% 30.20 in 10.0 mi SSW 4.6 mph - N/A   Clear
9:35 PM 60.8 °F - 51.8 °F 72% 30.19 in 10.0 mi SSW 4.6 mph - N/A   Clear
9:55 PM 60.8 °F - 51.8 °F 72% 30.19 in 10.0 mi SSW 4.6 mph - N/A   Clear
10:15 PM 60.8 °F - 53.6 °F 77% 30.19 in 10.0 mi SSW 4.6 mph - N/A   Clear
10:35 PM 60.8 °F - 53.6 °F 77% 30.20 in 10.0 mi SSW 4.6 mph - N/A   Clear
10:55 PM 60.8 °F - 53.6 °F 77% 30.20 in 10.0 mi SSW 5.8 mph - N/A   Clear
11:15 PM 60.8 °F - 53.6 °F 77% 30.19 in 10.0 mi SSW 4.6 mph - N/A   Clear
11:35 PM 62.6 °F - 53.6 °F 72% 30.19 in 10.0 mi SSW 4.6 mph - N/A   Clear
11:55 PM 62.6 °F - 55.4 °F 77% 30.19 in 10.0 mi SSW 4.6 mph - N/A   Clear